sat.trackr.live / text

‹ back to catalog

SES-2

NORAD 37809 · 2011-049A

PAYLOAD ACTIVE UNKNOWN

§ Identity

Operator
Country
SES
Launch date
2011-09-21
Launch site
FRGUI
Launch vehicle
Mass (kg)
RCS (m²)
9.35

Purposes: comms

External: N2YO · Heavens-Above · Gunter

§ Orbital elements

Epoch: 2026-09-20T04:03:44.851104Z

Period
1,436.09 min
Inclination
0.2951°
Eccentricity
0.0002900
Mean motion
1.00272443 rev/d
Perigee alt
35,774.2 km
Apogee alt
35,798.6 km
Semi-major
42,164.5 km
B*
0.0000e+0
RAAN
87.3133°
Arg perigee
86.8497°
Mean anomaly
158.8555°
Rev number
5,491

§ Raw data

SES-21 37809U 11049A   26263.16926911 -.00000200  00000+0  00000+0 0  99972 37809   0.2951  87.3133 0002900  86.8497 158.8555  1.00272443 54913

JSON: /api/v1/satellites/37809 · /tle

For live sub-satellite position, see the globe view (requires WebGL).

§ Visibility from observer

Set your observer location to see the next 7 days of passes ≥ 10°. The values pass through the URL so the page stays shareable.

No JS? Fill the form by hand. The geolocation button needs JavaScript.